SWA713 KAUS-KTPA

Flight info

Callsign SWA713
Flight time N/A
Altitude 41000
Route ILEXY4 ZENZI DAS LLA LEV Y280 CHRGE RAYZZ3
Aircraft B738/M-SADE2E3GIJ4RWZ/LB1D1

Departure

Time 2026-05-06 12:36
Airport Austin Bergstrom International Airport (KAUS)

Arrival

Time N/A
Airport Tampa International Airport (KTPA)
Time Latitude Longitude Altitude Speed Heading
2026-05-06 11:43 30.20138 -97.66636 500 ft 0 kts 351°
2026-05-06 12:27 30.20122 -97.66633 500 ft 4 kts 351°
2026-05-06 12:27 30.20097 -97.66628 500 ft 3 kts 351°
2026-05-06 12:27 30.20074 -97.66629 500 ft 4 kts 37°
2026-05-06 12:28 30.20063 -97.66653 500 ft 4 kts 82°
2026-05-06 12:28 30.20061 -97.66665 500 ft 1 kts 82°
2026-05-06 12:30 30.20061 -97.66663 500 ft 2 kts 82°
2026-05-06 12:31 30.20066 -97.66630 500 ft 6 kts 78°
2026-05-06 12:31 30.20081 -97.66565 500 ft 9 kts 74°
2026-05-06 12:31 30.20091 -97.66493 500 ft 9 kts 86°
2026-05-06 12:31 30.20085 -97.66418 500 ft 10 kts 122°
2026-05-06 12:32 30.20017 -97.66392 500 ft 11 kts 176°
2026-05-06 12:32 30.19942 -97.66384 500 ft 11 kts 156°
2026-05-06 12:32 30.19915 -97.66309 500 ft 11 kts 90°
2026-05-06 12:32 30.19916 -97.66200 500 ft 15 kts 91°
2026-05-06 12:33 30.19919 -97.66079 489 ft 15 kts 88°
2026-05-06 12:33 30.19957 -97.65995 491 ft 15 kts 14°
2026-05-06 12:33 30.20059 -97.65996 486 ft 14 kts
2026-05-06 12:33 30.20157 -97.65996 486 ft 14 kts 358°
2026-05-06 12:34 30.20250 -97.65999 485 ft 13 kts 359°
2026-05-06 12:34 30.20340 -97.65994 482 ft 13 kts 19°
2026-05-06 12:34 30.20371 -97.65893 482 ft 15 kts 87°
2026-05-06 12:34 30.20356 -97.65790 478 ft 12 kts 148°
2026-05-06 12:35 30.20271 -97.65787 484 ft 14 kts 180°
2026-05-06 12:35 30.20084 -97.65782 481 ft 57 kts 179°
2026-05-06 12:35 30.19419 -97.65764 481 ft 130 kts 178°
2026-05-06 12:35 30.18374 -97.65732 845 ft 155 kts 178°
2026-05-06 12:36 30.17280 -97.65693 1611 ft 162 kts 177°
2026-05-06 12:36 30.16085 -97.65572 2068 ft 190 kts 160°
2026-05-06 12:36 30.15045 -97.64519 2371 ft 216 kts 116°
2026-05-06 12:36 30.14888 -97.62747 2694 ft 237 kts 77°
2026-05-06 12:37 30.15662 -97.60963 2979 ft 264 kts 60°
2026-05-06 12:37 30.16697 -97.59116 3486 ft 280 kts 59°
2026-05-06 12:37 30.17756 -97.57225 4414 ft 281 kts 59°
2026-05-06 12:37 30.18794 -97.55306 5384 ft 282 kts 60°
2026-05-06 12:38 30.19818 -97.53355 6278 ft 287 kts 60°
2026-05-06 12:38 30.20839 -97.51357 7242 ft 290 kts 60°
2026-05-06 12:38 30.21873 -97.49299 8175 ft 294 kts 61°
2026-05-06 12:38 30.22898 -97.47231 9057 ft 299 kts 61°
2026-05-06 12:39 30.23919 -97.45156 9912 ft 303 kts 61°
2026-05-06 12:39 30.24994 -97.42960 10469 ft 320 kts 62°
2026-05-06 12:39 30.26132 -97.40627 10754 ft 343 kts 62°
2026-05-06 12:39 30.27319 -97.38188 11407 ft 352 kts 62°
2026-05-06 12:40 30.28534 -97.35691 12110 ft 359 kts 62°
2026-05-06 12:40 30.29772 -97.33144 12821 ft 366 kts 61°
2026-05-06 12:40 30.31030 -97.30555 13537 ft 373 kts 61°
2026-05-06 12:40 30.32310 -97.27918 14265 ft 378 kts 61°
2026-05-06 12:41 30.33608 -97.25243 14955 ft 384 kts 60°
2026-05-06 12:41 30.34850 -97.22470 15620 ft 391 kts 68°
2026-05-06 12:41 30.35620 -97.19442 16287 ft 396 kts 81°
2026-05-06 12:41 30.35861 -97.16264 16918 ft 399 kts 94°
2026-05-06 12:42 30.35669 -97.13045 17552 ft 403 kts 98°
2026-05-06 12:42 30.35422 -97.09780 18157 ft 410 kts 98°
2026-05-06 12:42 30.35191 -97.06461 18763 ft 416 kts 97°
2026-05-06 12:42 30.34981 -97.03099 19421 ft 420 kts 97°
2026-05-06 12:43 30.34784 -96.99712 20097 ft 424 kts 97°
2026-05-06 12:43 30.34587 -96.96292 20717 ft 428 kts 97°
2026-05-06 12:43 30.34387 -96.92837 21333 ft 432 kts 97°
2026-05-06 12:43 30.34183 -96.89348 21939 ft 436 kts 97°
2026-05-06 12:44 30.33974 -96.85833 22520 ft 439 kts 97°
2026-05-06 12:44 30.33761 -96.82286 23053 ft 444 kts 97°
2026-05-06 12:44 30.33615 -96.79874 23413 ft 447 kts 97°
2026-05-06 12:44 30.33393 -96.76275 23935 ft 450 kts 98°
2026-05-06 12:45 30.33168 -96.72651 24458 ft 454 kts 98°
2026-05-06 12:45 30.32940 -96.68992 24970 ft 457 kts 98°
2026-05-06 12:45 30.32474 -96.61571 25834 ft 467 kts 98°
2026-05-06 12:46 30.32237 -96.57802 26274 ft 471 kts 98°
2026-05-06 12:46 30.31997 -96.54000 26708 ft 475 kts 98°
2026-05-06 12:46 30.31754 -96.50169 27102 ft 480 kts 98°
2026-05-06 12:46 30.31509 -96.46300 27494 ft 484 kts 98°
2026-05-06 12:47 30.31261 -96.42404 27891 ft 487 kts 98°
2026-05-06 12:47 30.31011 -96.38480 28277 ft 491 kts 98°
2026-05-06 12:47 30.30760 -96.34529 28617 ft 495 kts 98°
2026-05-06 12:47 30.30506 -96.30528 28970 ft 499 kts 98°
2026-05-06 12:48 30.30249 -96.26511 29328 ft 503 kts 98°
2026-05-06 12:48 30.29988 -96.22466 29659 ft 506 kts 98°
2026-05-06 12:48 30.29724 -96.18389 29967 ft 510 kts 98°
2026-05-06 12:48 30.29456 -96.14281 30261 ft 514 kts 98°
2026-05-06 12:49 30.29186 -96.10155 30588 ft 517 kts 98°
2026-05-06 12:49 30.28912 -96.05995 30931 ft 519 kts 98°
2026-05-06 12:49 30.28637 -96.01816 31252 ft 522 kts 98°
2026-05-06 12:49 30.28363 -95.97620 31536 ft 525 kts 98°
2026-05-06 12:50 30.28084 -95.93339 31801 ft 528 kts 98°
2026-05-06 12:50 30.27804 -95.89089 32076 ft 531 kts 98°
2026-05-06 12:50 30.27523 -95.84823 32368 ft 533 kts 98°
2026-05-06 12:50 30.27239 -95.80534 32629 ft 536 kts 98°
2026-05-06 12:51 30.26952 -95.76233 32850 ft 539 kts 98°
2026-05-06 12:51 30.26661 -95.71900 33077 ft 542 kts 98°
2026-05-06 12:51 30.26368 -95.67555 33398 ft 542 kts 98°
2026-05-06 12:51 30.26076 -95.63210 33793 ft 540 kts 98°
2026-05-06 12:52 30.25782 -95.58878 34145 ft 540 kts 98°
2026-05-06 12:52 30.25486 -95.54551 34443 ft 541 kts 98°
2026-05-06 12:52 30.25188 -95.50220 34760 ft 540 kts 98°
2026-05-06 12:52 30.24889 -95.45892 35149 ft 538 kts 98°
2026-05-06 12:53 30.24591 -95.41587 35538 ft 536 kts 98°
2026-05-06 12:53 30.24292 -95.37299 35866 ft 534 kts 98°
2026-05-06 12:53 30.23992 -95.33017 36162 ft 534 kts 98°
2026-05-06 12:53 30.23690 -95.28735 36433 ft 534 kts 98°
2026-05-06 12:54 30.23387 -95.24454 36708 ft 534 kts 98°
2026-05-06 12:54 30.23083 -95.20183 37026 ft 532 kts 98°
2026-05-06 12:54 30.22781 -95.15936 37421 ft 529 kts 98°
2026-05-06 12:54 30.22480 -95.11717 37829 ft 524 kts 98°
2026-05-06 12:55 30.22179 -95.07525 38149 ft 522 kts 98°
2026-05-06 12:55 30.21876 -95.03345 38377 ft 522 kts 98°
2026-05-06 12:55 30.21571 -94.99160 38553 ft 523 kts 98°
2026-05-06 12:55 30.21264 -94.94967 38766 ft 523 kts 98°
2026-05-06 12:56 30.20956 -94.90776 38918 ft 524 kts 98°
2026-05-06 12:56 30.20646 -94.86573 39045 ft 526 kts 98°
2026-05-06 12:56 30.20334 -94.82360 39181 ft 527 kts 98°
2026-05-06 12:56 30.20022 -94.78149 39373 ft 527 kts 98°
2026-05-06 12:57 30.19708 -94.73930 39571 ft 526 kts 98°
2026-05-06 12:57 30.19395 -94.69726 39761 ft 526 kts 98°
2026-05-06 12:57 30.19061 -94.65459 39961 ft 524 kts 101°
2026-05-06 12:57 30.18430 -94.61341 40190 ft 517 kts 109°
2026-05-06 12:58 30.17559 -94.57330 40467 ft 513 kts 110°
2026-05-06 12:58 30.16639 -94.53351 40646 ft 512 kts 110°
2026-05-06 12:58 30.15706 -94.49383 40776 ft 512 kts 110°
2026-05-06 12:58 30.14777 -94.45418 40884 ft 510 kts 110°
2026-05-06 12:59 30.13862 -94.41455 40915 ft 511 kts 110°
2026-05-06 12:59 30.12051 -94.33489 40932 ft 513 kts 110°
2026-05-06 13:00 30.10254 -94.25499 40934 ft 515 kts 110°
2026-05-06 13:00 30.08450 -94.17494 40933 ft 516 kts 110°
2026-05-06 13:01 30.06637 -94.09485 40927 ft 516 kts 110°
2026-05-06 13:01 30.04815 -94.01470 40915 ft 516 kts 110°
2026-05-06 13:02 30.02992 -93.93474 40904 ft 515 kts 110°
2026-05-06 13:02 30.01164 -93.85480 40916 ft 514 kts 110°
2026-05-06 13:03 29.99339 -93.77522 40927 ft 513 kts 110°
2026-05-06 13:03 29.97512 -93.69585 40934 ft 511 kts 110°
2026-05-06 13:04 29.95688 -93.61679 40940 ft 510 kts 110°
2026-05-06 13:04 29.93860 -93.53784 40946 ft 509 kts 110°
2026-05-06 13:05 29.92032 -93.45911 40946 ft 508 kts 110°
2026-05-06 13:05 29.90191 -93.38004 40946 ft 507 kts 110°
2026-05-06 13:06 29.88359 -93.30156 40945 ft 507 kts 110°
2026-05-06 13:06 29.86525 -93.22327 40944 ft 506 kts 110°
2026-05-06 13:07 29.84687 -93.14500 40936 ft 506 kts 110°
2026-05-06 13:07 29.82843 -93.06673 40941 ft 506 kts 110°
2026-05-06 13:08 29.80996 -92.98852 40948 ft 506 kts 110°
2026-05-06 13:08 29.79145 -92.91037 40943 ft 506 kts 110°
2026-05-06 13:09 29.77290 -92.83227 40942 ft 506 kts 110°
2026-05-06 13:09 29.75428 -92.75410 40947 ft 506 kts 110°
2026-05-06 13:10 29.73560 -92.67593 40944 ft 507 kts 110°
2026-05-06 13:10 29.71689 -92.59781 40952 ft 507 kts 110°
2026-05-06 13:11 29.69811 -92.51966 40954 ft 507 kts 110°
2026-05-06 13:11 29.67930 -92.44154 40951 ft 507 kts 110°
2026-05-06 13:12 29.66044 -92.36330 40946 ft 508 kts 109°
2026-05-06 13:12 29.64338 -92.28372 40946 ft 510 kts 107°
2026-05-06 13:13 29.62754 -92.20427 40945 ft 510 kts 107°
2026-05-06 13:13 29.61147 -92.12482 40945 ft 511 kts 107°
2026-05-06 13:14 29.59504 -92.04537 40945 ft 511 kts 108°
2026-05-06 13:14 29.57848 -91.96607 40954 ft 511 kts 108°
2026-05-06 13:15 29.56185 -91.88672 40952 ft 511 kts 108°
2026-05-06 13:15 29.54521 -91.80746 40964 ft 511 kts 108°
2026-05-06 13:16 29.52853 -91.72826 40971 ft 510 kts 108°
2026-05-06 13:16 29.51180 -91.64904 40981 ft 510 kts 108°
2026-05-06 13:17 29.49777 -91.58279 40981 ft 510 kts 108°
2026-05-06 13:17 29.48098 -91.50376 40983 ft 509 kts 108°
2026-05-06 13:18 29.46417 -91.42485 40978 ft 509 kts 108°
2026-05-06 13:18 29.44732 -91.34602 40984 ft 508 kts 107°
2026-05-06 13:19 29.43044 -91.26728 40989 ft 508 kts 107°
2026-05-06 13:19 29.41355 -91.18875 40990 ft 507 kts 107°
2026-05-06 13:20 29.39661 -91.11022 40991 ft 507 kts 107°
2026-05-06 13:20 29.37966 -91.03189 40992 ft 506 kts 107°
2026-05-06 13:21 29.36267 -90.95358 40990 ft 506 kts 107°
2026-05-06 13:21 29.34563 -90.87535 40989 ft 506 kts 107°
2026-05-06 13:22 29.32857 -90.79721 40992 ft 505 kts 107°
2026-05-06 13:22 29.31145 -90.71902 40991 ft 506 kts 107°
2026-05-06 13:23 29.29431 -90.64098 40989 ft 506 kts 107°
2026-05-06 13:23 29.27709 -90.56282 41001 ft 506 kts 107°
2026-05-06 13:24 29.25983 -90.48469 41000 ft 506 kts 107°
2026-05-06 13:24 29.24240 -90.40605 41000 ft 507 kts 107°
2026-05-06 13:25 29.22501 -90.32783 40999 ft 507 kts 107°
2026-05-06 13:25 29.20756 -90.24953 41011 ft 508 kts 107°
2026-05-06 13:26 29.19007 -90.17128 41007 ft 508 kts 107°
2026-05-06 13:26 29.17253 -90.09287 41013 ft 509 kts 107°
2026-05-06 13:27 29.15619 -90.01411 41008 ft 509 kts 105°
2026-05-06 13:27 29.14041 -89.93505 41003 ft 510 kts 105°
2026-05-06 13:28 29.12451 -89.85612 41009 ft 509 kts 105°
2026-05-06 13:28 29.10840 -89.77728 41009 ft 509 kts 105°
2026-05-06 13:29 29.09218 -89.69841 41009 ft 509 kts 105°
2026-05-06 13:29 29.07594 -89.61971 41010 ft 509 kts 105°
2026-05-06 13:30 29.05965 -89.54099 41008 ft 508 kts 105°
2026-05-06 13:30 29.04336 -89.46245 41008 ft 508 kts 105°
2026-05-06 13:31 29.02693 -89.38347 41010 ft 507 kts 105°
2026-05-06 13:31 29.01057 -89.30511 41010 ft 507 kts 105°
2026-05-06 13:32 28.99417 -89.22682 41008 ft 506 kts 105°
2026-05-06 13:32 28.97776 -89.14866 41013 ft 506 kts 105°
2026-05-06 13:33 28.96132 -89.07064 41032 ft 505 kts 105°
2026-05-06 13:33 28.94507 -88.99373 41010 ft 505 kts 105°
2026-05-06 13:34 28.92835 -88.91483 41024 ft 505 kts 105°
2026-05-06 13:34 28.91181 -88.83702 41030 ft 504 kts 105°
2026-05-06 13:35 28.89523 -88.75922 41032 ft 504 kts 105°
2026-05-06 13:35 28.87813 -88.68163 41029 ft 504 kts 108°
2026-05-06 13:36 28.85742 -88.60540 41030 ft 503 kts 110°
2026-05-06 13:36 28.83566 -88.52949 41029 ft 504 kts 110°
2026-05-06 13:37 28.81427 -88.45352 41036 ft 504 kts 110°
2026-05-06 13:37 28.79312 -88.37732 41036 ft 504 kts 109°
2026-05-06 13:38 28.77183 -88.30068 41034 ft 504 kts 109°
2026-05-06 13:38 28.75061 -88.22455 41036 ft 504 kts 109°
2026-05-06 13:39 28.72933 -88.14843 41039 ft 504 kts 109°
2026-05-06 13:39 28.70800 -88.07235 41041 ft 504 kts 110°
2026-05-06 13:40 28.68660 -87.99639 41035 ft 504 kts 110°
2026-05-06 13:40 28.66514 -87.92050 41033 ft 504 kts 109°
2026-05-06 13:41 28.64367 -87.84466 41039 ft 503 kts 109°
2026-05-06 13:41 28.62214 -87.76876 41035 ft 503 kts 109°
2026-05-06 13:42 28.60060 -87.69301 41035 ft 503 kts 109°
2026-05-06 13:42 28.57901 -87.61727 41039 ft 503 kts 109°
2026-05-06 13:43 28.55736 -87.54150 41035 ft 503 kts 109°
2026-05-06 13:43 28.53569 -87.46583 41036 ft 504 kts 109°
2026-05-06 13:44 28.51397 -87.39018 41036 ft 504 kts 109°
2026-05-06 13:44 28.49218 -87.31443 41036 ft 504 kts 109°
2026-05-06 13:45 28.47033 -87.23869 41033 ft 504 kts 109°
2026-05-06 13:45 28.43733 -87.12459 41037 ft 505 kts 109°
2026-05-06 13:46 28.41532 -87.04871 41036 ft 506 kts 109°
2026-05-06 13:46 28.39327 -86.97287 41037 ft 506 kts 109°
2026-05-06 13:47 28.37113 -86.89689 41040 ft 507 kts 109°
2026-05-06 13:47 28.34894 -86.82092 41034 ft 508 kts 109°
2026-05-06 13:48 28.32667 -86.74483 41039 ft 508 kts 109°
2026-05-06 13:48 28.30811 -86.68152 41033 ft 509 kts 109°
2026-05-06 13:49 28.28584 -86.60536 41037 ft 509 kts 109°
2026-05-06 13:49 28.26354 -86.52910 41037 ft 510 kts 109°
2026-05-06 13:50 28.24115 -86.45272 41044 ft 510 kts 109°
2026-05-06 13:50 28.21872 -86.37640 41048 ft 510 kts 109°
2026-05-06 13:51 28.19605 -86.29949 41046 ft 511 kts 109°
2026-05-06 13:51 28.17351 -86.22317 41047 ft 511 kts 109°
2026-05-06 13:52 28.15088 -86.14672 41046 ft 511 kts 109°
2026-05-06 13:52 28.12820 -86.07030 41046 ft 511 kts 109°
2026-05-06 13:53 28.10550 -85.99397 41046 ft 511 kts 109°
2026-05-06 13:53 28.08277 -85.91771 41046 ft 511 kts 109°
2026-05-06 13:54 28.05998 -85.84142 41046 ft 511 kts 109°
2026-05-06 13:54 28.03725 -85.76552 40795 ft 505 kts 109°
2026-05-06 13:55 28.02604 -85.72813 40538 ft 497 kts 109°
2026-05-06 13:55 28.01498 -85.69128 40277 ft 492 kts 109°
2026-05-06 13:55 28.00398 -85.65470 40031 ft 490 kts 109°
2026-05-06 13:55 27.99299 -85.61816 39792 ft 491 kts 109°
2026-05-06 13:56 27.98195 -85.58153 39544 ft 491 kts 109°
2026-05-06 13:56 27.97092 -85.54497 39308 ft 492 kts 109°
2026-05-06 13:56 27.95978 -85.50806 39085 ft 501 kts 109°
2026-05-06 13:56 27.94839 -85.47036 38860 ft 511 kts 109°
2026-05-06 13:57 27.93687 -85.43231 38614 ft 511 kts 109°
2026-05-06 13:57 27.92539 -85.39440 38355 ft 507 kts 109°
2026-05-06 13:57 27.91403 -85.35690 38097 ft 501 kts 109°
2026-05-06 13:57 27.90278 -85.31980 37846 ft 499 kts 109°
2026-05-06 13:58 27.89150 -85.28268 37605 ft 500 kts 109°
2026-05-06 13:58 27.88117 -85.24525 37353 ft 499 kts 102°
2026-05-06 13:58 27.87412 -85.20683 37115 ft 499 kts 99°
2026-05-06 13:58 27.86790 -85.16823 36869 ft 499 kts 98°
2026-05-06 13:59 27.86180 -85.12918 36619 ft 499 kts 98°
2026-05-06 13:59 27.85575 -85.09110 36373 ft 498 kts 99°
2026-05-06 13:59 27.84936 -85.05208 36122 ft 498 kts 99°
2026-05-06 13:59 27.84292 -85.01363 35871 ft 499 kts 99°
2026-05-06 14:00 27.83637 -84.97506 35626 ft 501 kts 99°
2026-05-06 14:00 27.82976 -84.93627 35251 ft 508 kts 99°
2026-05-06 14:00 27.82303 -84.89675 34615 ft 513 kts 99°
2026-05-06 14:00 27.81635 -84.85718 33954 ft 512 kts 98°
2026-05-06 14:01 27.81240 -84.81776 33741 ft 499 kts 90°
2026-05-06 14:01 27.81294 -84.77901 33471 ft 486 kts 83°
2026-05-06 14:01 27.81492 -84.74119 33154 ft 480 kts 82°
2026-05-06 14:01 27.81726 -84.70329 32601 ft 491 kts 82°
2026-05-06 14:02 27.81968 -84.66446 31970 ft 499 kts 82°
2026-05-06 14:02 27.82193 -84.62526 31260 ft 499 kts 82°
2026-05-06 14:02 27.82398 -84.58618 30539 ft 500 kts 83°
2026-05-06 14:02 27.82588 -84.54703 30001 ft 496 kts 83°
2026-05-06 14:03 27.82768 -84.50836 29461 ft 491 kts 83°
2026-05-06 14:03 27.82944 -84.47001 28908 ft 487 kts 83°
2026-05-06 14:03 27.83118 -84.43198 28359 ft 482 kts 83°
2026-05-06 14:03 27.83290 -84.39432 27812 ft 478 kts 83°
2026-05-06 14:04 27.83461 -84.35701 27271 ft 473 kts 83°
2026-05-06 14:04 27.83631 -84.32000 26734 ft 469 kts 83°
2026-05-06 14:04 27.83799 -84.28341 26199 ft 465 kts 83°
2026-05-06 14:04 27.83963 -84.24715 25663 ft 460 kts 83°
2026-05-06 14:05 27.84126 -84.21116 25130 ft 456 kts 83°
2026-05-06 14:05 27.84286 -84.17558 24601 ft 452 kts 83°
2026-05-06 14:05 27.84444 -84.14029 24075 ft 447 kts 83°
2026-05-06 14:05 27.84599 -84.10535 23554 ft 443 kts 83°
2026-05-06 14:06 27.84752 -84.07079 23036 ft 439 kts 83°
2026-05-06 14:06 27.84902 -84.03659 22519 ft 434 kts 83°
2026-05-06 14:06 27.85051 -84.00230 22000 ft 430 kts 83°
2026-05-06 14:06 27.85198 -83.96873 21490 ft 426 kts 83°
2026-05-06 14:07 27.85341 -83.93547 20985 ft 422 kts 83°
2026-05-06 14:07 27.85492 -83.90253 20545 ft 416 kts 82°
2026-05-06 14:07 27.85717 -83.87036 20132 ft 409 kts 80°
2026-05-06 14:07 27.85986 -83.83854 19650 ft 405 kts 79°
2026-05-06 14:08 27.86266 -83.80701 19162 ft 402 kts 79°
2026-05-06 14:08 27.86541 -83.77570 18668 ft 399 kts 79°
2026-05-06 14:08 27.86808 -83.74463 18172 ft 396 kts 80°
2026-05-06 14:08 27.87067 -83.71372 17675 ft 393 kts 80°
2026-05-06 14:09 27.87319 -83.68311 17181 ft 390 kts 80°
2026-05-06 14:09 27.87566 -83.65270 16689 ft 387 kts 80°
2026-05-06 14:09 27.87809 -83.62256 16201 ft 383 kts 81°
2026-05-06 14:09 27.88048 -83.59268 15716 ft 380 kts 81°
2026-05-06 14:10 27.88285 -83.56306 15235 ft 377 kts 81°
2026-05-06 14:10 27.88519 -83.53370 14755 ft 373 kts 81°
2026-05-06 14:10 27.88750 -83.50464 14283 ft 370 kts 81°
2026-05-06 14:10 27.88979 -83.47582 13815 ft 366 kts 81°
2026-05-06 14:11 27.89204 -83.44737 13348 ft 362 kts 82°
2026-05-06 14:11 27.89427 -83.41913 12893 ft 359 kts 82°
2026-05-06 14:11 27.89648 -83.39112 12432 ft 355 kts 82°
2026-05-06 14:11 27.89865 -83.36350 11976 ft 351 kts 82°
2026-05-06 14:12 27.90079 -83.33614 11531 ft 348 kts 82°
2026-05-06 14:12 27.90291 -83.30903 11077 ft 345 kts 83°
2026-05-06 14:12 27.90500 -83.28223 10619 ft 339 kts 83°
2026-05-06 14:12 27.90701 -83.25634 10459 ft 321 kts 83°
2026-05-06 14:13 27.90890 -83.23187 10309 ft 305 kts 83°
2026-05-06 14:13 27.91072 -83.20837 10176 ft 298 kts 83°
2026-05-06 14:13 27.91250 -83.18528 10056 ft 292 kts 83°
2026-05-06 14:13 27.91602 -83.16263 9898 ft 288 kts 67°
2026-05-06 14:14 27.92450 -83.14223 9765 ft 287 kts 61°
2026-05-06 14:14 27.93358 -83.12237 9592 ft 290 kts 61°
2026-05-06 14:14 27.94303 -83.10183 9429 ft 292 kts 61°
2026-05-06 14:14 27.95223 -83.08168 9220 ft 293 kts 61°
2026-05-06 14:15 27.96164 -83.06087 9032 ft 293 kts 62°
2026-05-06 14:15 27.97083 -83.04039 8817 ft 291 kts 62°
2026-05-06 14:15 27.97988 -83.02013 8632 ft 286 kts 62°
2026-05-06 14:15 27.98879 -83.00010 8446 ft 284 kts 62°
2026-05-06 14:16 27.99767 -82.98013 8273 ft 284 kts 62°
2026-05-06 14:16 28.00653 -82.96019 8092 ft 284 kts 62°
2026-05-06 14:16 28.01537 -82.94026 7913 ft 283 kts 62°
2026-05-06 14:16 28.02421 -82.92031 7736 ft 283 kts 62°
2026-05-06 14:17 28.03305 -82.90037 7558 ft 283 kts 63°
2026-05-06 14:17 28.04187 -82.88044 7368 ft 284 kts 62°
2026-05-06 14:17 28.05072 -82.86049 7189 ft 284 kts 63°
2026-05-06 14:17 28.05952 -82.84059 7017 ft 283 kts 63°
2026-05-06 14:18 28.06808 -82.82050 6839 ft 283 kts 65°
2026-05-06 14:18 28.07620 -82.80022 6648 ft 283 kts 65°
2026-05-06 14:18 28.08415 -82.78010 6457 ft 277 kts 65°
2026-05-06 14:18 28.09193 -82.76041 6292 ft 271 kts 65°
2026-05-06 14:19 28.09957 -82.74113 6122 ft 267 kts 65°
2026-05-06 14:19 28.10717 -82.72202 5944 ft 266 kts 65°
2026-05-06 14:19 28.11474 -82.70293 5787 ft 264 kts 65°
2026-05-06 14:19 28.12227 -82.68401 5614 ft 262 kts 65°
2026-05-06 14:20 28.12970 -82.66542 5444 ft 256 kts 65°
2026-05-06 14:20 28.13692 -82.64730 5288 ft 250 kts 65°
2026-05-06 14:20 28.14398 -82.62956 5134 ft 244 kts 65°
2026-05-06 14:20 28.15090 -82.61221 4941 ft 241 kts 67°
2026-05-06 14:21 28.15385 -82.59991 4656 ft 239 kts 89°
2026-05-06 14:21 28.15109 -82.57564 4219 ft 235 kts 102°
2026-05-06 14:21 28.14868 -82.56349 3965 ft 234 kts 103°
2026-05-06 14:21 28.14510 -82.54551 3567 ft 233 kts 104°
2026-05-06 14:22 28.13575 -82.52442 3053 ft 230 kts 143°
2026-05-06 14:22 28.12606 -82.51945 2843 ft 226 kts 172°
2026-05-06 14:22 28.11061 -82.52047 2539 ft 225 kts 186°
2026-05-06 14:22 28.09495 -82.52231 2268 ft 219 kts 183°
2026-05-06 14:23 28.08066 -82.52366 2102 ft 194 kts 183°
2026-05-06 14:23 28.06772 -82.52439 1398 ft 200 kts 176°
2026-05-06 14:23 28.05510 -82.52212 1182 ft 182 kts 163°
2026-05-06 14:23 28.04571 -82.51799 1041 ft 172 kts 152°
2026-05-06 14:24 28.03668 -82.51420 1098 ft 157 kts 172°
2026-05-06 14:24 28.02581 -82.51518 1131 ft 174 kts 211°
2026-05-06 14:24 28.01393 -82.52451 1120 ft 219 kts 206°
2026-05-06 14:24 28.00009 -82.52882 641 ft 195 kts 176°